| time (UTC) | temp F | wind direction | speed MPH | gust MPH | rain 1hr in | rain 24hr in | rain mn in | humidity % | barometer mb |
| 20260503060141 | 57 | 114 | 1.0 | 3.0 | 0.00 | 0.00 | 0.00 | 89 | 1013.1 |
| 20260503054641 | 56 | 97 | 1.0 | 3.0 | 0.00 | 0.00 | 0.00 | 90 | 1012.9 |
| 20260503054140 | 56 | 89 | 1.0 | 2.0 | 0.00 | 0.00 | 0.00 | 90 | 1012.8 |
| 20260503053639 | 56 | 87 | 1.0 | 2.0 | 0.00 | 0.00 | 0.00 | 90 | 1012.8 |
| 20260503053139 | 56 | 114 | 1.0 | 2.0 | 0.00 | 0.00 | 0.00 | 90 | 1012.7 |
| 20260503052640 | 56 | 111 | 1.0 | 2.0 | 0.00 | 0.00 | 0.00 | 90 | 1012.7 |
| 20260503052140 | 55 | 106 | 1.0 | 2.0 | 0.00 | 0.00 | 0.00 | 90 | 1012.7 |
| 20260503051640 | 55 | 106 | 1.0 | 2.0 | 0.00 | 0.00 | 0.00 | 90 | 1012.7 |
| 20260503051137 | 55 | 110 | 1.0 | 1.0 | 0.00 | 0.00 | 0.00 | 90 | 1012.8 |
| 20260503050639 | 55 | 102 | 0.0 | 1.0 | 0.00 | 0.00 | 0.00 | 90 | 1012.8 |
| 20260503050151 | 55 | 102 | 0.0 | 1.0 | 0.00 | 0.00 | 0.00 | 90 | 1012.7 |
| 20260503045639 | 55 | 110 | 0.0 | 1.0 | 0.00 | 0.00 | 0.00 | 90 | 1012.7 |
| 20260503045448 | 55 | 111 | 0.0 | 2.0 | 0.00 | 0.00 | 0.00 | 90 | 1012.7 |
| 20260503044950 | 56 | 107 | 0.0 | 2.0 | 0.00 | 0.00 | 0.00 | 90 | 1012.6 |
| 20260503044139 | 56 | 89 | 1.0 | 3.0 | 0.00 | 0.00 | 0.00 | 90 | 1012.6 |
| 20260503043639 | 56 | 107 | 1.0 | 3.0 | 0.00 | 0.00 | 0.00 | 90 | 1012.5 |
| 20260503043138 | 56 | 106 | 0.0 | 2.0 | 0.00 | 0.00 | 0.00 | 90 | 1012.6 |
| 20260503042638 | 56 | 99 | 1.0 | 2.0 | 0.00 | 0.00 | 0.00 | 90 | 1012.6 |
| 20260503042139 | 56 | 111 | 0.0 | 2.0 | 0.00 | 0.00 | 0.00 | 90 | 1012.6 |
| 20260503041947 | 56 | 104 | 0.0 | 2.0 | 0.00 | 0.00 | 0.00 | 90 | 1012.5 |
| 20260503041139 | 56 | 94 | 0.0 | 2.0 | 0.00 | 0.00 | 0.00 | 90 | 1012.6 |
| 20260503040943 | 56 | 116 | 0.0 | 2.0 | 0.00 | 0.00 | 0.00 | 90 | 1012.7 |
| 20260503040141 | 56 | 100 | 0.0 | 3.0 | 0.00 | 0.00 | 0.00 | 90 | 1012.6 |
| 20260503035637 | 56 | 97 | 0.0 | 4.0 | 0.00 | 0.00 | 0.00 | 90 | 1012.7 |
| 20260503035258 | 56 | 109 | 2.0 | 4.0 | 0.00 | 0.00 | 0.00 | 90 | 1012.8 |
| 20260503035229 | 56 | 97 | 2.0 | 4.0 | 0.00 | 0.00 | 0.00 | 90 | 1012.7 |
| 20260503034140 | 55 | 100 | 1.0 | 1.0 | 0.00 | 0.00 | 0.00 | 90 | 1012.8 |
| 20260503033637 | 55 | 102 | 0.0 | 1.0 | 0.00 | 0.00 | 0.00 | 90 | 1012.8 |
| 20260503033137 | 55 | 90 | 0.0 | 0.0 | 0.00 | 0.00 | 0.00 | 90 | 1012.8 |
| 20260503032636 | 55 | 90 | 0.0 | 0.0 | 0.00 | 0.00 | 0.00 | 89 | 1012.8 |
| 20260503032134 | 55 | 90 | 0.0 | 0.0 | 0.00 | 0.00 | 0.00 | 89 | 1012.8 |
| 20260503031637 | 56 | 90 | 0.0 | 0.0 | 0.00 | 0.00 | 0.00 | 89 | 1012.9 |
| 20260503031137 | 56 | 90 | 0.0 | 1.0 | 0.00 | 0.00 | 0.00 | 88 | 1013.1 |
| 20260503030636 | 56 | 90 | 0.0 | 1.0 | 0.00 | 0.00 | 0.00 | 88 | 1013.0 |
| 20260503030448 | 56 | 90 | 0.0 | 1.0 | 0.00 | 0.00 | 0.00 | 88 | 1012.8 |
| 20260503025636 | 56 | 90 | 1.0 | 2.0 | 0.00 | 0.00 | 0.00 | 88 | 1012.9 |
| 20260503025135 | 56 | 92 | 1.0 | 2.0 | 0.00 | 0.00 | 0.00 | 88 | 1013.0 |
| 20260503024634 | 56 | 100 | 1.0 | 2.0 | 0.00 | 0.00 | 0.00 | 87 | 1012.9 |
| 20260503024135 | 57 | 96 | 1.0 | 2.0 | 0.00 | 0.00 | 0.00 | 87 | 1013.0 |
| 20260503023635 | 57 | 110 | 0.0 | 2.0 | 0.00 | 0.00 | 0.00 | 87 | 1013.0 |
| 20260503023135 | 57 | 96 | 0.0 | 2.0 | 0.00 | 0.00 | 0.00 | 87 | 1013.0 |
| 20260503022942 | 57 | 120 | 0.0 | 2.0 | 0.00 | 0.00 | 0.00 | 86 | 1013.1 |
| 20260503022136 | 57 | 85 | 0.0 | 2.0 | 0.00 | 0.00 | 0.00 | 86 | 1013.1 |
| 20260503021634 | 57 | 87 | 0.0 | 1.0 | 0.00 | 0.00 | 0.00 | 86 | 1013.2 |
| 20260503021132 | 57 | 83 | 0.0 | 1.0 | 0.00 | 0.00 | 0.00 | 86 | 1013.3 |
| 20260503020635 | 57 | 79 | 0.0 | 2.0 | 0.00 | 0.00 | 0.00 | 86 | 1013.2 |
| 20260503020147 | 57 | 79 | 0.0 | 2.0 | 0.00 | 0.00 | 0.00 | 86 | 1013.2 |
| 20260503015634 | 57 | 100 | 1.0 | 3.0 | 0.00 | 0.00 | 0.00 | 86 | 1013.2 |
| 20260503015134 | 58 | 106 | 0.0 | 3.0 | 0.00 | 0.00 | 0.00 | 86 | 1013.2 |
| 20260503014634 | 58 | 106 | 1.0 | 2.0 | 0.00 | 0.00 | 0.00 | 86 | 1013.1 |
| 20260503014134 | 58 | 103 | 1.0 | 2.0 | 0.00 | 0.00 | 0.00 | 85 | 1013.1 |
| 20260503013634 | 58 | 97 | 0.0 | 1.0 | 0.00 | 0.00 | 0.00 | 85 | 1013.4 |
| 20260503013134 | 58 | 99 | 0.0 | 1.0 | 0.00 | 0.00 | 0.00 | 85 | 1013.5 |
| 20260503012634 | 58 | 97 | 0.0 | 1.0 | 0.00 | 0.00 | 0.00 | 85 | 1013.4 |
| 20260503012134 | 58 | 99 | 0.0 | 1.0 | 0.00 | 0.00 | 0.00 | 85 | 1013.5 |
| 20260503011937 | 58 | 99 | 0.0 | 3.0 | 0.00 | 0.00 | 0.00 | 85 | 1013.4 |
| 20260503011134 | 58 | 99 | 0.0 | 3.0 | 0.00 | 0.00 | 0.00 | 85 | 1013.3 |
| 20260503010634 | 58 | 106 | 0.0 | 2.0 | 0.00 | 0.00 | 0.00 | 85 | 1013.3 |
| 20260503010443 | 58 | 117 | 0.0 | 3.0 | 0.00 | 0.00 | 0.00 | 85 | 1013.4 |
| 20260503005633 | 58 | 97 | 2.0 | 4.0 | 0.00 | 0.00 | 0.00 | 85 | 1013.3 |
| 20260503005133 | 58 | 92 | 2.0 | 4.0 | 0.00 | 0.00 | 0.00 | 86 | 1013.3 |
| 20260503004633 | 58 | 100 | 2.0 | 4.0 | 0.00 | 0.00 | 0.00 | 87 | 1013.5 |
| 20260503004133 | 58 | 109 | 2.0 | 2.0 | 0.00 | 0.00 | 0.00 | 88 | 1013.6 |
| 20260503003634 | 58 | 97 | 0.0 | 2.0 | 0.00 | 0.00 | 0.00 | 89 | 1013.7 |
| 20260503003132 | 58 | 82 | 1.0 | 1.0 | 0.00 | 0.00 | 0.00 | 90 | 1013.7 |
| 20260503002633 | 58 | 114 | 0.0 | 0.0 | 0.00 | 0.00 | 0.00 | 90 | 1013.7 |
| 20260503002133 | 58 | 114 | 0.0 | 0.0 | 0.00 | 0.00 | 0.00 | 90 | 1013.8 |
| 20260503001634 | 58 | 114 | 0.0 | 0.0 | 0.00 | 0.00 | 0.00 | 90 | 1013.9 |
| 20260503001133 | 58 | 114 | 0.0 | 0.0 | 0.00 | 0.00 | 0.00 | 90 | 1013.9 |
| 20260503000632 | 58 | 114 | 0.0 | 0.0 | 0.00 | 0.00 | 0.00 | 90 | 1014.0 |
| 20260503000133 | 58 | 114 | 0.0 | 0.0 | 0.00 | 0.00 | 0.00 | 90 | 1014.1 |
| 20260502235753 | 58 | 114 | 0.0 | 0.0 | 0.00 | 0.00 | 0.00 | 90 | 1014.2 |
| 20260502235723 | 58 | 114 | 0.0 | 0.0 | 0.00 | 0.00 | 0.00 | 90 | 1014.1 |
| 20260502234632 | 57 | 114 | 0.0 | 0.0 | 0.00 | 0.00 | 0.00 | 89 | 1014.3 |
| 20260502234443 | 57 | 114 | 0.0 | 0.0 | 0.00 | 0.00 | 0.00 | 89 | 1014.4 |
| 20260502233632 | 57 | 114 | 0.0 | 0.0 | 0.00 | 0.00 | 0.00 | 89 | 1014.5 |
| 20260502233131 | 57 | 114 | 0.0 | 0.0 | 0.00 | 0.00 | 0.00 | 89 | 1014.5 |
| 20260502232631 | 57 | 114 | 0.0 | 0.0 | 0.00 | 0.00 | 0.00 | 89 | 1014.6 |
| 20260502232131 | 57 | 114 | 0.0 | 0.0 | 0.00 | 0.00 | 0.00 | 89 | 1014.6 |
| 20260502231816 | 57 | 114 | 0.0 | 0.0 | 0.00 | 0.00 | 0.00 | 88 | 1014.6 |
| 20260502231739 | 57 | 114 | 0.0 | 0.0 | 0.00 | 0.00 | 0.00 | 89 | 1014.6 |
| 20260502230630 | 57 | 114 | 0.0 | 0.0 | 0.00 | 0.00 | 0.00 | 88 | 1014.6 |
| 20260502230130 | 57 | 114 | 0.0 | 0.0 | 0.00 | 0.00 | 0.00 | 88 | 1014.7 |
| 20260502225631 | 57 | 114 | 0.0 | 0.0 | 0.00 | 0.00 | 0.00 | 88 | 1014.6 |
| 20260502225130 | 57 | 114 | 0.0 | 0.0 | 0.00 | 0.00 | 0.00 | 88 | 1014.6 |
| 20260502224631 | 57 | 114 | 0.0 | 0.0 | 0.00 | 0.00 | 0.00 | 87 | 1014.7 |
| 20260502224131 | 57 | 114 | 0.0 | 0.0 | 0.00 | 0.00 | 0.00 | 87 | 1014.8 |
| 20260502223631 | 57 | 114 | 0.0 | 0.0 | 0.00 | 0.00 | 0.00 | 86 | 1014.7 |
| 20260502223132 | 57 | 114 | 0.0 | 0.0 | 0.00 | 0.00 | 0.00 | 86 | 1014.7 |
| 20260502222630 | 57 | 114 | 0.0 | 0.0 | 0.00 | 0.00 | 0.00 | 86 | 1014.8 |
| 20260502222131 | 57 | 114 | 0.0 | 1.0 | 0.00 | 0.00 | 0.00 | 85 | 1014.8 |
| 20260502221630 | 58 | 114 | 0.0 | 1.0 | 0.00 | 0.00 | 0.00 | 85 | 1014.9 |
| 20260502221315 | 58 | 83 | 0.0 | 1.0 | 0.00 | 0.00 | 0.00 | 84 | 1014.7 |
| 20260502221235 | 58 | 114 | 0.0 | 1.0 | 0.00 | 0.00 | 0.00 | 85 | 1014.8 |
| 20260502220130 | 58 | 83 | 0.0 | 0.0 | 0.00 | 0.00 | 0.00 | 84 | 1014.7 |
| 20260502215632 | 58 | 83 | 0.0 | 0.0 | 0.00 | 0.00 | 0.00 | 84 | 1014.7 |
| 20260502215453 | 58 | 83 | 0.0 | 0.0 | 0.00 | 0.00 | 0.00 | 84 | 1014.6 |
| 20260502214628 | 58 | 83 | 0.0 | 1.0 | 0.00 | 0.00 | 0.00 | 83 | 1014.6 |
| 20260502214127 | 58 | 83 | 0.0 | 1.0 | 0.00 | 0.00 | 0.00 | 82 | 1014.7 |
| 20260502213629 | 59 | 83 | 0.0 | 1.0 | 0.00 | 0.00 | 0.00 | 82 | 1014.7 |
| 20260502213448 | 59 | 86 | 0.0 | 1.0 | 0.00 | 0.00 | 0.00 | 81 | 1014.7 |
| 20260502212629 | 59 | 86 | 0.0 | 1.0 | 0.00 | 0.00 | 0.00 | 80 | 1014.6 |
| 20260502212129 | 59 | 86 | 0.0 | 2.0 | 0.00 | 0.00 | 0.00 | 80 | 1014.5 |
| 20260502211628 | 59 | 73 | 1.0 | 2.0 | 0.00 | 0.00 | 0.00 | 80 | 1014.5 |
| 20260502211130 | 59 | 102 | 0.0 | 1.0 | 0.00 | 0.00 | 0.00 | 80 | 1014.5 |
| 20260502210632 | 59 | 102 | 0.0 | 1.0 | 0.00 | 0.00 | 0.00 | 80 | 1014.5 |
| 20260502210130 | 59 | 99 | 0.0 | 1.0 | 0.00 | 0.00 | 0.00 | 80 | 1014.6 |
| 20260502205628 | 59 | 96 | 0.0 | 1.0 | 0.00 | 0.00 | 0.00 | 80 | 1014.6 |
| 20260502205130 | 59 | 96 | 0.0 | 1.0 | 0.00 | 0.00 | 0.00 | 80 | 1014.7 |
| 20260502204628 | 59 | 96 | 0.0 | 1.0 | 0.00 | 0.00 | 0.00 | 79 | 1014.6 |
| 20260502204131 | 59 | 96 | 0.0 | 1.0 | 0.00 | 0.00 | 0.00 | 79 | 1014.5 |
| 20260502203953 | 59 | 96 | 0.0 | 0.0 | 0.00 | 0.00 | 0.00 | 78 | 1014.6 |
| 20260502203128 | 60 | 96 | 0.0 | 1.0 | 0.00 | 0.00 | 0.00 | 78 | 1014.5 |
| 20260502202629 | 60 | 96 | 0.0 | 1.0 | 0.00 | 0.00 | 0.00 | 78 | 1014.4 |
| 20260502202127 | 60 | 97 | 0.0 | 1.0 | 0.00 | 0.00 | 0.00 | 77 | 1014.4 |
| 20260502201630 | 60 | 97 | 0.0 | 1.0 | 0.00 | 0.00 | 0.00 | 77 | 1014.5 |
| 20260502201129 | 60 | 96 | 1.0 | 1.0 | 0.00 | 0.00 | 0.00 | 77 | 1014.5 |
| 20260502200628 | 60 | 83 | 0.0 | 1.0 | 0.00 | 0.00 | 0.00 | 77 | 1014.4 |
| 20260502200128 | 60 | 97 | 0.0 | 1.0 | 0.00 | 0.00 | 0.00 | 76 | 1014.5 |
| 20260502195628 | 60 | 90 | 0.0 | 3.0 | 0.00 | 0.00 | 0.00 | 76 | 1014.5 |
| 20260502195128 | 60 | 86 | 0.0 | 3.0 | 0.00 | 0.00 | 0.00 | 76 | 1014.5 |
| 20260502194630 | 61 | 87 | 1.0 | 2.0 | 0.00 | 0.00 | 0.00 | 75 | 1014.5 |
| 20260502194128 | 61 | 92 | 0.0 | 4.0 | 0.00 | 0.00 | 0.00 | 75 | 1014.4 |
| 20260502193627 | 61 | 106 | 1.0 | 4.0 | 0.00 | 0.00 | 0.00 | 75 | 1014.4 |
| 20260502193130 | 61 | 103 | 2.0 | 5.0 | 0.00 | 0.00 | 0.00 | 75 | 1014.4 |
| 20260502192627 | 61 | 97 | 2.0 | 5.0 | 0.00 | 0.00 | 0.00 | 74 | 1014.3 |
| 20260502192127 | 61 | 127 | 2.0 | 3.0 | 0.00 | 0.00 | 0.00 | 74 | 1014.3 |
| 20260502191951 | 61 | 103 | 1.0 | 3.0 | 0.00 | 0.00 | 0.00 | 74 | 1014.3 |
| 20260502191127 | 61 | 111 | 0.0 | 2.0 | 0.00 | 0.00 | 0.00 | 74 | 1014.5 |
| 20260502190627 | 62 | 111 | 0.0 | 2.0 | 0.00 | 0.00 | 0.00 | 74 | 1014.4 |
| 20260502190127 | 62 | 106 | 2.0 | 3.0 | 0.00 | 0.00 | 0.00 | 74 | 1014.4 |
| 20260502185957 | 62 | 100 | 1.0 | 4.0 | 0.00 | 0.00 | 0.00 | 73 | 1014.3 |
| 20260502185129 | 62 | 114 | 1.0 | 4.0 | 0.00 | 0.00 | 0.00 | 73 | 1014.2 |
| 20260502184628 | 62 | 93 | 3.0 | 5.0 | 0.00 | 0.00 | 0.00 | 73 | 1014.1 |
| 20260502184126 | 62 | 96 | 1.0 | 7.0 | 0.00 | 0.00 | 0.00 | 73 | 1014.2 |
| 20260502183625 | 62 | 85 | 4.0 | 7.0 | 0.00 | 0.00 | 0.00 | 72 | 1014.2 |
| 20260502183125 | 62 | 124 | 1.0 | 5.0 | 0.00 | 0.00 | 0.00 | 73 | 1014.2 |
| 20260502182626 | 62 | 85 | 2.0 | 4.0 | 0.00 | 0.00 | 0.00 | 73 | 1014.1 |
| 20260502182128 | 62 | 6 | 1.0 | 4.0 | 0.00 | 0.00 | 0.00 | 75 | 1014.2 |
| 20260502181625 | 63 | 128 | 1.0 | 13.0 | 0.00 | 0.00 | 0.00 | 73 | 1014.1 |
| 20260502181127 | 63 | 110 | 4.0 | 13.0 | 0.00 | 0.00 | 0.00 | 73 | 1013.9 |
| 20260502180625 | 63 | 110 | 6.0 | 13.0 | 0.00 | 0.00 | 0.00 | 73 | 1013.8 |
| 20260502180125 | 63 | 116 | 6.0 | 11.0 | 0.00 | 0.00 | 0.00 | 73 | 1013.8 |
| 20260502170124 | 64 | 117 | 9.0 | 20.0 | 0.00 | 0.00 | 0.00 | 73 | 1013.5 |
| 20260502164127 | 65 | 107 | 10.0 | 18.0 | 0.00 | 0.00 | 0.00 | 73 | 1013.7 |
| 20260502163624 | 65 | 100 | 9.0 | 19.0 | 0.00 | 0.00 | 0.00 | 72 | 1013.9 |
| 20260502163123 | 65 | 96 | 9.0 | 19.0 | 0.00 | 0.00 | 0.00 | 72 | 1013.8 |
| 20260502162622 | 66 | 94 | 10.0 | 16.0 | 0.00 | 0.00 | 0.00 | 72 | 1013.8 |
| 20260502162445 | 66 | 116 | 11.0 | 19.0 | 0.00 | 0.00 | 0.00 | 72 | 1013.8 |
| 20260502161954 | 66 | 97 | 11.0 | 23.0 | 0.00 | 0.00 | 0.00 | 71 | 1013.7 |
| 20260502161123 | 66 | 94 | 14.0 | 23.0 | 0.00 | 0.00 | 0.00 | 70 | 1013.7 |
| 20260502160623 | 67 | 96 | 9.0 | 19.0 | 0.00 | 0.00 | 0.00 | 71 | 1013.7 |
| 20260502160122 | 67 | 99 | 10.0 | 20.0 | 0.00 | 0.00 | 0.00 | 70 | 1013.7 |
| 20260502152122 | 67 | 109 | 9.0 | 18.0 | 0.00 | 0.00 | 0.00 | 67 | 1014.2 |
| 20260502151621 | 67 | 75 | 10.0 | 18.0 | 0.00 | 0.00 | 0.00 | 68 | 1014.2 |
| 20260502151121 | 68 | 102 | 11.0 | 18.0 | 0.00 | 0.00 | 0.00 | 67 | 1014.4 |
| 20260502150936 | 68 | 104 | 10.0 | 17.0 | 0.00 | 0.00 | 0.00 | 66 | 1014.5 |
| 20260502150119 | 68 | 85 | 9.0 | 15.0 | 0.00 | 0.00 | 0.00 | 66 | 1014.5 |
| 20260502140121 | 70 | 121 | 10.0 | 18.0 | 0.00 | 0.00 | 0.00 | 63 | 1015.3 |
| 20260502130617 | 69 | 103 | 8.0 | 15.0 | 0.00 | 0.00 | 0.00 | 64 | 1015.8 |
| 20260502130118 | 69 | 113 | 9.0 | 18.0 | 0.00 | 0.00 | 0.00 | 64 | 1015.8 |
| 20260502123616 | 69 | 107 | 8.0 | 17.0 | 0.00 | 0.00 | 0.00 | 65 | 1016.1 |
| 20260502123117 | 69 | 80 | 7.0 | 17.0 | 0.00 | 0.00 | 0.00 | 65 | 1016.1 |
| 20260502122615 | 69 | 127 | 9.0 | 16.0 | 0.00 | 0.00 | 0.00 | 65 | 1016.2 |
| 20260502122118 | 69 | 94 | 9.0 | 16.0 | 0.00 | 0.00 | 0.00 | 65 | 1016.3 |
| 20260502121923 | 69 | 96 | 9.0 | 14.0 | 0.00 | 0.00 | 0.00 | 64 | 1016.2 |
| 20260502121115 | 69 | 96 | 6.0 | 18.0 | 0.00 | 0.00 | 0.00 | 65 | 1016.2 |
| 20260502120616 | 68 | 85 | 10.0 | 20.0 | 0.00 | 0.00 | 0.00 | 64 | 1016.2 |
| 20260502120116 | 69 | 102 | 14.0 | 20.0 | 0.00 | 0.00 | 0.00 | 63 | 1016.2 |
| 20260502115615 | 69 | 121 | 9.0 | 17.0 | 0.00 | 0.00 | 0.00 | 64 | 1016.2 |
| 20260502115115 | 69 | 69 | 10.0 | 16.0 | 0.00 | 0.00 | 0.00 | 65 | 1016.4 |
| 20260502114617 | 69 | 79 | 7.0 | 18.0 | 0.00 | 0.00 | 0.00 | 65 | 1016.5 |
| 20260502114115 | 69 | 97 | 7.0 | 18.0 | 0.00 | 0.00 | 0.00 | 65 | 1016.7 |
| 20260502113614 | 69 | 127 | 10.0 | 19.0 | 0.00 | 0.00 | 0.00 | 65 | 1016.8 |
| 20260502113242 | 69 | 99 | 9.0 | 17.0 | 0.00 | 0.00 | 0.00 | 65 | 1016.8 |
| 20260502113212 | 69 | 72 | 10.0 | 19.0 | 0.00 | 0.00 | 0.00 | 65 | 1016.8 |
| 20260502112115 | 69 | 117 | 11.0 | 17.0 | 0.00 | 0.00 | 0.00 | 65 | 1017.0 |
| 20260502111921 | 69 | 109 | 10.0 | 16.0 | 0.00 | 0.00 | 0.00 | 65 | 1017.0 |
| 20260502111114 | 69 | 107 | 8.0 | 19.0 | 0.00 | 0.00 | 0.00 | 68 | 1017.0 |
| 20260502110614 | 69 | 104 | 10.0 | 19.0 | 0.00 | 0.00 | 0.00 | 66 | 1017.0 |
| 20260502110117 | 69 | 85 | 10.0 | 17.0 | 0.00 | 0.00 | 0.00 | 67 | 1017.1 |
| 20260502105613 | 69 | 111 | 9.0 | 16.0 | 0.00 | 0.00 | 0.00 | 67 | 1017.2 |
| 20260502105422 | 68 | 99 | 9.0 | 16.0 | 0.00 | 0.00 | 0.00 | 69 | 1017.3 |
| 20260502104614 | 68 | 124 | 9.0 | 16.0 | 0.00 | 0.00 | 0.00 | 69 | 1017.3 |
| 20260502104113 | 67 | 37 | 8.0 | 18.0 | 0.00 | 0.00 | 0.00 | 70 | 1017.5 |
| 20260502103614 | 67 | 113 | 7.0 | 18.0 | 0.00 | 0.00 | 0.00 | 71 | 1017.6 |
| 20260502103113 | 67 | 90 | 10.0 | 15.0 | 0.00 | 0.00 | 0.00 | 69 | 1017.6 |
| 20260502102934 | 67 | 125 | 9.0 | 15.0 | 0.00 | 0.00 | 0.00 | 69 | 1017.5 |
| 20260502102115 | 67 | 107 | 10.0 | 15.0 | 0.00 | 0.00 | 0.00 | 69 | 1017.5 |
| 20260502101614 | 67 | 125 | 9.0 | 17.0 | 0.00 | 0.00 | 0.00 | 69 | 1017.5 |
| 20260502101113 | 67 | 110 | 8.0 | 19.0 | 0.00 | 0.00 | 0.00 | 68 | 1017.5 |
| 20260502100613 | 67 | 121 | 11.0 | 19.0 | 0.00 | 0.00 | 0.00 | 67 | 1017.5 |
| 20260502100209 | 68 | 92 | 10.0 | 17.0 | 0.00 | 0.00 | 0.00 | 69 | 1017.6 |
| 20260502091112 | 65 | 114 | 13.0 | 22.0 | 0.00 | 0.00 | 0.00 | 71 | 1017.8 |
| 20260502090611 | 66 | 124 | 9.0 | 22.0 | 0.00 | 0.00 | 0.00 | 74 | 1017.8 |
| 20260502090123 | 65 | 120 | 11.0 | 21.0 | 0.00 | 0.00 | 0.00 | 72 | 1017.7 |
| 20260502080110 | 63 | 79 | 8.0 | 19.0 | 0.00 | 0.00 | 0.00 | 77 | 1017.8 |
| 20260502071108 | 61 | 106 | 5.0 | 12.0 | 0.00 | 0.00 | 0.00 | 82 | 1018.1 |
| 20260502070610 | 61 | 106 | 5.0 | 13.0 | 0.00 | 0.00 | 0.00 | 83 | 1017.9 |
| 20260502070110 | 60 | 94 | 7.0 | 13.0 | 0.00 | 0.00 | 0.00 | 83 | 1018.0 |
| 20260502065609 | 60 | 109 | 7.0 | 12.0 | 0.00 | 0.00 | 0.00 | 83 | 1017.8 |
| 20260502065109 | 60 | 106 | 6.0 | 12.0 | 0.00 | 0.00 | 0.00 | 83 | 1017.9 |
| 20260502064621 | 60 | 92 | 6.0 | 10.0 | 0.00 | 0.00 | 0.00 | 84 | 1017.9 |